View from above orbital plane
|
View from above satellite
|
Ground track
|
The orbit data is extracted from the following two-line orbital elements,
1 00053U 60009E 13139.84107194 -.00000085 00000-0 00000+0 0 3654
2 00053 047.2763 311.7987 0097627 002.3281 135.7773 12.17112896353644
| Epoch (UTC): | 19 May 2013 20:11:08 |
| Eccentricity: | 0.0097627 |
| inclination: | 47.2763° |
| perigee height: | 1527 km |
| apogee height: | 1683 km |
| right ascension of ascending node: | 311.7987° |
| argument of perigee: | 2.3281° |
| revolutions per day: | 12.17112896 |
| mean anomaly at epoch: | 135.7773° |
| orbit number at epoch: | 35364 |
The dashed part of the orbit path shows where the satellite is in the earth's shadow,
|
|